This demonstration page uses our WeatherBlox Daily Observations layout. Learn more.

Hourly Observations for June 2, 2018

Temp ( °F °C ) Dew Point ( °F °C ) Humidity (%) Winds ( mph kmh ) Pressure ( in mb ) Visibility ( mi km ) Precip ( " mm )
12:15 am 00:15 Cloudy with Heavy Thunderstorms 64 18 61 16.2 89 89 NE 12 19 29.71 1006 5 8.0467 0.13 3.302
12:35 am 00:35 Cloudy with Heavy Thunderstorms 64 17.6 62 16.6 94 94 N 5 7 29.8 1009 5 8.0467 0.28 7.112
12:55 am 00:55 Cloudy with Thunderstorms 63 17 61 16.3 96 96 E 12 19 29.77 1008 7 11.26538 0.34 8.636
1:15 am 01:15 Mostly Cloudy 62 16.5 61 16 97 97 ENE 16 26 29.77 1008 10 16.0934 0.01 0.254
1:35 am 01:35 Partly Cloudy 61 16.3 61 16 98 98 ENE 3 6 29.77 1008 10 16.0934 0.01 0.254
1:55 am 01:55 Clear 62 16.5 61 16.1 98 98 NE 5 7 29.8 1009 10 16.0934 0.01 0.254
2:15 am 02:15 Partly Cloudy 62 16.5 61 16.2 98 98 N 6 9 29.83 1010 10 16.0934 0 0
2:35 am 02:35 Partly Cloudy 61 16.3 61 16.2 99 99 N 5 7 29.83 1010 10 16.0934 0 0
2:55 am 02:55 Clear 61 16.2 61 16.1 99 99 NNE 9 15 29.83 1010 10 16.0934 0 0
3:15 am 03:15 Partly Cloudy 61 16.1 61 16.1 100 100 Calm 29.83 1010 10 16.0934 0 0
3:35 am 03:35 Partly Cloudy with Nearby Thunderstorms 61 16.1 61 16 99 99 NNW 7 11 29.85 1011 10 16.0934 0 0
3:55 am 03:55 Partly Cloudy 61 16.1 61 16.1 100 100 NNW 6 9 29.85 1011 10 16.0934 0 0
4:15 am 04:15 Partly Cloudy 61 16.1 61 16.1 100 100 N 6 9 29.85 1011 10 16.0934 0 0
4:35 am 04:35 Mostly Cloudy 62 16.5 62 16.5 100 100 NW 5 7 29.88 1012 10 16.0934 0 0
4:55 am 04:55 Cloudy 62 16.8 62 16.5 98 98 NW 6 9 29.88 1012 10 16.0934 0 0
5:15 am 05:15 Cloudy 63 17.3 60 15.7 90 90 NNW 10 17 29.91 1013 10 16.0934 0 0
5:35 am 05:35 Cloudy 63 17.1 58 14.3 84 84 NNW 10 17 29.91 1013 10 16.0934 0 0
5:55 am 05:55 Mostly Cloudy 62 16.5 56 13.2 81 81 NNW 13 20 29.94 1014 10 16.0934 0 0
6:15 am 06:15 Mostly Cloudy 61 16 56 13.1 83 83 NNW 13 20 29.94 1014 10 16.0934 0 0
6:35 am 06:35 Cloudy 61 16 55 12.7 81 81 NNW 13 20 30 1016 10 16.0934 0 0
6:55 am 06:55 Partly Cloudy 60 15.5 55 12.8 84 84 NNW 13 20 30.03 1017 10 16.0934 0 0
7:15 am 07:15 Sunny 60 15.8 55 12.9 83 83 NNW 8 13 30.03 1017 10 16.0934 0 0
7:35 am 07:35 Sunny 61 16 56 13.1 83 83 NNW 12 19 30.06 1018 10 16.0934 0 0
7:55 am 07:55 Sunny 61 16.2 55 12.8 80 80 NNW 14 22 30.06 1018 10 16.0934 0 0
8:15 am 08:15 Sunny 62 16.5 55 12.5 77 77 N 14 22 30.06 1018 10 16.0934 0 0
8:35 am 08:35 Sunny 62 16.6 53 11.7 73 73 N 18 30 30.09 1019 10 16.0934 0 0
8:55 am 08:55 Sunny 62 16.6 53 11.6 73 73 N 16 26 30.09 1019 10 16.0934 0 0
9:15 am 09:15 Sunny 63 17.1 54 12.1 73 73 N 16 26 30.09 1019 10 16.0934 0 0
9:35 am 09:35 Sunny 64 17.6 55 12.6 73 73 N 15 24 30.06 1018 10 16.0934 0 0
9:55 am 09:55 Sunny 65 18.1 55 12.8 71 71 N 14 22 30.06 1018 10 16.0934 0 0
10:15 am 10:15 Sunny 66 18.8 55 12.5 67 67 N 16 26 30.06 1018 10 16.0934 0 0
10:35 am 10:35 Sunny 67 19.3 53 11.4 60 60 NNW 22 35 30.06 1018 10 16.0934 0 0
10:55 am 10:55 Sunny 67 19.6 53 11.4 59 59 N 20 31 30.06 1018 10 16.0934 0 0
11:15 am 11:15 Sunny 68 19.8 52 11.1 57 57 N 17 28 30.06 1018 10 16.0934 0 0
11:35 am 11:35 Sunny 68 20.2 53 11.5 58 58 N 16 26 30.06 1018 10 16.0934 0 0
11:55 am 11:55 Sunny 70 20.9 52 11.1 54 54 NNW 17 28 30.03 1017 10 16.0934 0 0
12:15 pm 12:15 Sunny 70 21.3 52 11.2 53 53 NNW 15 24 30.03 1017 10 16.0934 0 0
12:35 pm 12:35 Sunny 71 21.5 51 10.6 50 50 NW 15 24 30.03 1017 10 16.0934 0 0
12:55 pm 12:55 Sunny 72 22.1 51 10.5 48 48 N 18 30 30.03 1017 10 16.0934 0 0
1:15 pm 13:15 Sunny 72 22.2 51 10.4 47 47 NNW 10 17 30.03 1017 10 16.0934 0 0
1:35 pm 13:35 Partly Cloudy 73 22.9 49 9.7 43 43 NW 16 26 30.03 1017 10 16.0934 0 0
1:55 pm 13:55 Partly Cloudy 74 23.2 50 9.8 43 43 NNW 15 24 30.03 1017 10 16.0934 0 0
2:15 pm 14:15 Sunny 73 23 48 8.7 40 40 NW 18 30 30.03 1017 10 16.0934 0 0
2:35 pm 14:35 Sunny 74 23.3 48 8.8 40 40 NNW 16 26 30.03 1017 10 16.0934 0 0
2:55 pm 14:55 Sunny 74 23.5 47 8.5 38 38 NNW 16 26 30.03 1017 10 16.0934 0 0
3:15 pm 15:15 Sunny 74 23.5 47 8.6 39 39 NNW 15 24 30.03 1017 10 16.0934 0 0
3:35 pm 15:35 Sunny 75 23.7 48 9 39 39 NW 14 22 30.03 1017 10 16.0934 0 0
3:55 pm 15:55 Sunny 75 24 48 8.9 38 38 NNW 16 26 30.03 1017 10 16.0934 0 0
4:15 pm 16:15 Sunny 75 24 48 8.9 38 38 NW 14 22 30.03 1017 10 16.0934 0 0
4:35 pm 16:35 Sunny 76 24.5 48 8.8 37 37 NNW 14 22 30 1016 10 16.0934 0 0
4:55 pm 16:55 Sunny 76 24.3 45 7.3 34 34 NNW 16 26 30.03 1017 10 16.0934 0 0
5:15 pm 17:15 Sunny 76 24.4 46 7.6 34 34 NW 10 17 30 1016 10 16.0934 0 0
5:35 pm 17:35 Sunny 76 24.5 46 7.9 35 35 NNW 13 20 30 1016 10 16.0934 0 0
5:55 pm 17:55 Sunny 76 24.5 45 7.4 34 34 NNW 12 19 30 1016 10 16.0934 0 0
6:15 pm 18:15 Sunny 76 24.5 45 7.4 34 34 NW 14 22 30 1016 10 16.0934 0 0
6:35 pm 18:35 Sunny 76 24.5 46 7.9 35 35 NNW 9 15 30 1016 10 16.0934 0 0
6:55 pm 18:55 Sunny 76 24.4 44 6.5 32 32 NNW 12 19 30 1016 10 16.0934 0 0
7:15 pm 19:15 Sunny 76 24.2 44 6.7 33 33 NNW 10 17 30.03 1017 10 16.0934 0 0
7:35 pm 19:35 Sunny 75 24 44 6.5 33 33 NNW 9 15 30.03 1017 10 16.0934 0 0
7:55 pm 19:55 Sunny 74 23.6 43 6.2 33 33 NNW 7 11 30.03 1017 10 16.0934 0 0
8:15 pm 20:15 Sunny 73 23 44 6.9 36 36 NNW 6 9 30.03 1017 10 16.0934 0 0
8:35 pm 20:35 Sunny 71 21.9 45 7.4 39 39 NNW 5 7 30.03 1017 10 16.0934 0 0
8:55 pm 20:55 Sunny 70 20.9 46 7.5 42 42 NNW 5 7 30.03 1017 10 16.0934 0 0
9:15 pm 21:15 Clear 68 19.9 48 8.9 49 49 NW 3 6 30.06 1018 10 16.0934 0 0
9:35 pm 21:35 Clear 64 17.9 51 10.4 62 62 WNW 3 6 30.06 1018 10 16.0934 0 0
9:55 pm 21:55 Clear 64 17.7 49 9.6 59 59 W 3 6 30.06 1018 10 16.0934 0 0
10:15 pm 22:15 Clear 65 18.5 48 8.9 54 54 Calm 30.06 1018 10 16.0934 0 0
10:35 pm 22:35 Clear 62 16.9 50 10 64 64 Calm 30.12 1020 10 16.0934 0 0
10:55 pm 22:55 Clear 62 16.5 51 10.3 67 67 W 5 7 30.12 1020 10 16.0934 0 0
11:15 pm 23:15 Clear 62 16.8 49 9.5 62 62 W 8 13 30.12 1020 10 16.0934 0 0
11:35 pm 23:35 Clear 62 16.8 48 9 60 60 WNW 6 9 30.12 1020 10 16.0934 0 0
11:55 pm 23:55 Clear 61 16.1 48 9 63 63 WNW 5 7 30.12 1020 10 16.0934 0 0

Powered by AerisWeather